THORAD AGENA D DEB, 18513

Orbit data source: Space-Track

THORAD AGENA D DEB, 18513 is space debris in SSO originally from a launch on Wed, 08 Apr 1970 UTC launched from the Air Force Western Test Range (AFWTR). Debris objects in space refer to the collection of defunct objects orbiting the Earth. Examples of debris include non-operational satellites, rocket bodies, and fragments generated from explosions, collisions, or faulty payload assembly.

Loading next visibility...
Identifier
18513, 1970-025PN
Orbit
SSO
Country
Flag of USUS
Related business
Manufacturer
Unknown
Mission
Spacecraft
Bus & Motor
Unknown
Mass
Unknown
Launch date (UTC)
1970-04-08 (56 years ago)
Launch vehicle
Unknown
Launch site
Air Force Western Test Range (AFWTR)
Object type
Payload
Rocket body
Debris
Shape & HBR
Unknown shape, 0.1 m
Radar Cross Section
Medium (>0.1 m² and <1 m²)

Expand to show TLE details & history
Last TLE update: 10 hours ago

TLE from 10 hours ago
0 THORAD AGENA D DEB
1 18513U 70025PN  26256.25696869  .00001845  00000-0  74248-3 0  9990
2 18513  99.7207 174.1979 0046132 182.6325 329.4939 14.28936623137313
Epoch: 2026-09-13T06:10Z
TLE epoch observation values (Epoch: 2026-09-13T06:10:02.094Z)
Latitude
27.74742°
Longitude
-85.4223°
Altitude
770.185 km
Speed
7.486 km/s
True Right ascension
23h 57m 21s
True Declination
27° 36' 22"
Sunlit
Object was in full shadow at epoch
Visualization orbit readout
Latitude
Unknown
Longitude
Unknown
Altitude
Unknown
Speed
Unknown
Apparent Right ascension
Unknown
Apparent Declination
Unknown
Sunlit
N/A
Visualization observer readout
Local Sidereal Time
08:36:45
Azimuth
Unknown
Elevation
Unknown
Doppler factor
Unknown
Orbital elements
Apogee altitude
825.565 km
Perigee altitude
759.406 km
Semi-major axis
7,170.622 km
Eccentricity
0.00461
Inclination
99.7207°
RAAN
174.1979°
Arg. of periapsis
182.6325°
True anomaly
329.22421°
Mean anomaly
329.4939°
Eccentric anomaly
329.35919°
Mean motion
3.57444 °/min
Orbital period
100.72 mins
BSTAR
0.00074248

Documentation

Showing up to 5 results
|